カタリナ彗星

300P/Catalina (2018)

English version
Home page
Updated on May 20, 2019

---------------------------------------------------------------------

・ プロフィール

・ 写真集

・ 軌道要素

Epoch 2018 Nov. 18.0 TT = JDT 2458440.5
T 2018 Nov. 2.05860 TT                                  MPCW
q   0.8328141            (2000.0)            P               Q
n   0.22223898     Peri.  222.85383     +0.74595550     +0.65868349
a   2.6993295      Node    95.67369     -0.58115678     +0.71596050
e   0.6914737      Incl.    5.67608     -0.32528016     +0.23137985
P   4.43
From 697 observations 2005 May 6-2019 Jan. 1, mean residual 0".6.
     Nongravitational parameters A1 = +0.04, A2 = -0.0079.

・ 星図

・ 光度変化

        H = 17.5  G = 0.15                [   ,-87]  (              〜2018年 8月 7日)
        m1 = 16.0 + 5 logΔ + 23.0 log r  [-87, 85]  (2018年 8月 7日〜2019年 1月26日)
        H = 17.5  G = 0.15                [ 85,   ]  (2019年 1月26日〜              )

---------------------------------------------------------------------

軌道要素はM.P.E.C. 2019-J142に掲載されたものです。
星図はステラナビゲータ Ver.10 (アストロアーツ) で作成したものです。
光度グラフはComet for Windowsで作成したものです。

---------------------------------------------------------------------

Copyright(C) Seiichi Yoshida (comet@aerith.net). All rights reserved.